星链-2106 (STARLINK-2106 )

导读

STARLINK-2106是美国SpaceX公司星链(Starlink)卫星互联网项目的一员,于2021年1月20日发射入轨。星链项目旨在通过部署数千颗低地球轨道卫星,为全球尤其是偏远地区提供高速低延迟的宽带互联网服务。作为大规模低轨星座的组成部分,STARLINK-2106依托相控阵天线和先进通信技术,助力实现全球覆盖,提升网络接入能力,同时也成为SpaceX构建太空通信基础设施的重要节点。

Basic Information
目录编号:
47386
目录名称:
STARLINK-2106
国际标识:
2021-005AP
轨道中心:
EARTH
卫星名称:
星链-2106
卫星全名:
星链-2106 (STARLINK-2106 )
卫星状态:
在轨 (已飞行2053 天)
发射日期:
2021-01-20 UTC
国别 :
美国 (US)
星等 :
--
Orbit Information
数据来源 国际轨道数据
星历时间: 2026-09-04T21:04:56+0800
8小时前
查看轨道信息
半长轴: 6848.859km
偏心率: 0.0001419
轨道倾角: 53.159°
近地点辐角 78.741°
升交点赤经 285.118°
平近点角 281.375°
近地点: 469.75km
远地点: 471.694km
周期: 94.013分钟
每日圈数: 15.317062
Detailed Information
固有亮度:
5
最大亮度:
2.5
卫星平台:
Starlink V1.0
覆盖范围:
全球
运营商:
太空探索技术公司
运营商所在国:
美国
制造商(研发单位):
太空探索技术公司
制造商所在国:
美国
使用方式:
暂无
Satellite Introduction
星链(Starlink)计划是由太空探索技术公司(SpaceX)提出的一个巨型低轨卫星互联网星座项目,计划在2019年至2024年间在太空搭建由约1.2万颗卫星组成的“星链”网络,其中1584颗将部署在地球上空550千米处的近地轨道,并从2020年开始工作。该卫星仍在工作。
2D Orbit Map
3D Orbit Map
Orbit Altitude Analysis Chart
Orbit Inclination Analysis Chart
Orbit Comprehensive Analysis Chart
View Comprehensive Chart
Conjunction Data List
Event ID Objects TCA Miss Dist (km) Collision Risk Probability Collision Risk Index (CRI) Action
CDM_260905-175204-738606-995121
2026-09-05T
17:52:12+0000
1.782 km
极远距离
3.189726E-6 低风险 0.45